Home > Weather > A Coruña > Past weeks

Flag for Spain Past Weather in A Coruña, Spain — Yesterday and Last 2 Weeks

Now
68 °F

Mild.


Feels Like: 68 °F
Forecast: 60 / 68 °F
Wind: 7 mph from West

Location: La Coruna

Current Time: Jul 1, 2016 at 3:30:12 PM

Latest Report: Jul 1, 2016 at 2:00 PM


Visibility: 13 mi

Pressure: 30.19 "Hg

Humidity: 70%

Dew Point: 58 °F

Location of A CoruñaLocation

Past Weather in A Coruña — Graph

°F

A Coruña Temperature Yesterday

Maximum temperature yesterday: 70 °F (at 4:00 PM)
Minimum temperature yesterday: 61 °F (at 8:00 AM)
Average temperature yesterday: 65 °F

High & Low Weather Summary for the Past Weeks

 TemperatureHumidityPressure
High73 °F (Jun 21, 1:00 PM)100% (Jun 23, 4:00 AM)30.47 "Hg (Jun 23, 4:00 AM)
Low56 °F (Jun 19, 7:00 AM)65% (Jun 29, 3:00 PM)29.89 "Hg (Jun 16, 2:00 PM)
Average63 °F86%30.20 "Hg
* Reported Jun 16 2:00 PM — Jul 1 2:00 PM, A Coruña, Weather by CustomWeather, © 2016

Note: Actual official high and low records may vary slightly from our data, if they occured in-between our weather recording intervals... More about our weather records

Advertising

A Coruña Weather History for the Previous 24 Hours

Scroll right to see more
 ConditionsComfort  
Time TempWeatherWind HumidityBarometerVisibility
2:00 PM
Fri, Jul 1
68 °FMild.7 mph70%30.19 "Hg12 mi
1:00 PM65 °FMild.8 mph87%30.19 "Hg12 mi
12:00 PM65 °FMild.9 mph90%30.18 "Hg12 mi
11:00 AM64 °FDrizzle. Cloudy.8 mph92%30.17 "Hg6 mi
10:00 AM63 °FMild.6 mph94%30.16 "Hg12 mi
9:00 AM62 °FCool.6 mph97%30.15 "Hg2 mi
8:00 AM62 °FDrizzle. Cloudy.6 mph96%30.14 "Hg2 mi
7:00 AM62 °FDrizzle. Cloudy.6 mph94%30.14 "Hg5 mi
6:00 AM63 °FMild.7 mph92%30.13 "Hg12 mi
5:00 AM64 °FMild.5 mph87%30.13 "Hg12 mi
4:00 AM64 °FMild.5 mph90%30.14 "Hg12 mi
3:00 AM64 °FMild.5 mph90%30.14 "Hg12 mi
2:00 AM64 °FOvercast.3 mph91%30.15 "Hg12 mi
1:00 AM64 °FMild.6 mph92%30.16 "Hg12 mi
12:00 AM64 °FMild.5 mph92%30.16 "Hg12 mi
11:00 PM
Thu, Jun 30
64 °FOvercast.3 mph92%30.15 "Hg9 mi
10:00 PM65 °FMild.7 mph90%30.14 "Hg12 mi
9:00 PM65 °FMild.5 mph87%30.13 "Hg12 mi
8:00 PM66 °FMild.8 mph89%30.13 "Hg12 mi
7:00 PM67 °FMild.10 mph85%30.13 "Hg12 mi
6:00 PM68 °FMild.10 mph82%30.12 "Hg12 mi
5:00 PM69 °FMild.12 mph79%30.11 "Hg12 mi
4:00 PM70 °FMild.12 mph79%30.11 "Hg12 mi
3:00 PM69 °FMild.10 mph83%30.12 "Hg12 mi
Weather by CustomWeather, © 2016

See weather overviewHow to use our weather pages